Home > Weather > Tempe > Past weeks

Flag for USA Past Weather in Tempe, Arizona, USA — Yesterday and Last 2 Weeks

Now
86 °F

Passing clouds.


Feels Like: 84 °F
Forecast: 76 / 100 °F
Wind: 7 mph from East

Location: Phoenix Sky Harbor International Airport

Current Time: Aug 25, 2016 at 10:07:56 AM

Latest Report: Aug 25, 2016 at 8:51 AM


Visibility: 10 mi

Pressure: 29.89 "Hg

Humidity: 33%

Dew Point: 54 °F

Location of TempeLocation

Past Weather in Tempe — Graph

°F

Tempe Temperature Yesterday

Maximum temperature yesterday: 101 °F (at 2:51 PM)
Minimum temperature yesterday: 80 °F (at 4:51 AM)
Average temperature yesterday: 89 °F

High & Low Weather Summary for the Past Weeks

 TemperatureHumidityPressure
High111 °F (Aug 16, 1:51 PM)82% (Aug 11, 4:51 AM)29.98 "Hg (Aug 11, 4:51 AM)
Low74 °F (Aug 23, 5:51 AM)12% (Aug 17, 1:51 PM)29.64 "Hg (Aug 13, 6:51 PM)
Average92 °F34%29.79 "Hg
* Reported Aug 10 8:51 AM — Aug 25 8:51 AM, Tempe, Weather by CustomWeather, © 2016

Note: Actual official high and low records may vary slightly from our data, if they occured in-between our weather recording intervals... More about our weather records

Advertising

Tempe Weather History for the Previous 24 Hours

Scroll right to see more
 ConditionsComfort  
Time TempWeatherWind HumidityBarometerVisibility
8:51 AM
Thu, Aug 25
86 °FPassing clouds.7 mph33%29.89 "Hg10 mi
7:51 AM83 °FPassing clouds.8 mph40%29.89 "Hg10 mi
6:51 AM80 °FPassing clouds.8 mph45%29.87 "Hg10 mi
5:51 AM79 °FPassing clouds.6 mph48%29.85 "Hg10 mi
4:51 AM78 °FClear.3 mph54%29.83 "Hg10 mi
3:51 AM80 °FClear.3 mph47%29.82 "Hg10 mi
2:51 AM81 °FPassing clouds.3 mph51%29.82 "Hg10 mi
1:51 AM81 °FPassing clouds.3 mph45%29.82 "Hg10 mi
12:51 AM82 °FPassing clouds.No wind43%29.84 "Hg10 mi
11:51 PM
Wed, Aug 24
83 °FPassing clouds.3 mph43%29.83 "Hg10 mi
10:51 PM83 °FPassing clouds.8 mph41%29.84 "Hg10 mi
9:51 PM84 °FPartly cloudy.10 mph41%29.83 "Hg10 mi
8:51 PM91 °FPartly cloudy.5 mph26%29.79 "Hg10 mi
7:51 PM90 °FPassing clouds.13 mph31%29.82 "Hg10 mi
7:00 PM87 °FLight rain. Partly sunny.13 mph42%29.89 "Hg5 mi
5:59 PM97 °FBroken clouds.25 mph23%29.85 "Hg10 mi
4:51 PM101 °FBroken clouds.8 mph19%29.78 "Hg10 mi
3:51 PM101 °FScattered clouds.7 mph18%29.79 "Hg10 mi
2:51 PM101 °FPassing clouds.9 mph19%29.81 "Hg10 mi
1:51 PM100 °FPassing clouds.5 mph21%29.84 "Hg10 mi
12:51 PM98 °FPassing clouds.8 mph23%29.88 "Hg10 mi
11:51 AM95 °FPassing clouds.No wind26%29.90 "Hg10 mi
10:51 AM93 °FPassing clouds.No wind29%29.92 "Hg10 mi
Weather by CustomWeather, © 2016

See weather overviewHow to use our weather pages